Theta_e
335 333 332 334 334 335 336 337 334 335 334 332 332 330 330 325 322 319 318 320 322 323 325 321 324 327 327 327 327 326 326 326 328 332 327 328 329 315 314 315 318 316 312 312 312 313 314 315 316 318 321 322 322 321 318 317 316 318 320 320 318 314 313 313 314 317 317 315 312 309 308 307 306 306
333 334 333 332 334 336 338 336 337 337 335 334 332 337 331 330 324 322 319 321 324 323 326 325 321 325 325 325 322 324 324 321 328 325 327 328 328 311 313 313 315 313 311 310 309 311 313 315 317 319 322 323 320 317 316 316 316 319 320 319 318 316 315 316 316 316 315 311 310 309 309 308 307 306
331 329 327 331 332 339 336 335 335 335 334 336 333 332 331 330 330 327 325 320 324 327 323 325 325 324 326 323 323 325 323 322 324 328 328 328 316 314 314 311 311 312 312 309 311 316 315 313 316 319 322 322 320 317 319 319 319 320 320 317 315 317 317 316 316 316 314 311 309 310 310 309 307 306
331 331 329 333 335 336 334 334 334 334 334 335 336 331 332 330 333 328 324 323 322 329 326 326 325 325 325 324 322 323 319 321 318 327 327 324 317 322 324 310 311 311 311 311 316 322 319 317 318 320 321 321 320 319 319 319 319 319 316 313 313 315 315 315 315 315 314 311 310 310 311 310 308 307
332 333 330 332 333 335 334 333 334 334 332 332 334 332 334 331 332 328 326 323 323 326 328 326 324 324 323 320 321 319 317 316 320 320 326 324 319 320 323 321 308 309 309 309 311 313 313 316 322 320 317 320 319 316 315 314 313 316 315 310 310 311 313 313 313 313 313 311 310 311 311 311 310 308
331 331 330 330 333 334 333 334 331 333 333 333 333 331 330 332 331 334 326 323 325 322 325 324 325 323 323 319 319 318 314 312 315 318 321 316 314 319 319 318 322 307 310 309 310 311 311 311 314 313 310 312 312 312 311 311 310 312 309 305 308 312 313 313 311 310 312 312 311 311 310 310 310 308
331 331 332 330 332 335 332 333 333 334 332 333 328 330 329 329 331 328 328 326 324 323 323 325 321 322 321 322 318 318 316 313 312 315 314 311 315 321 320 318 319 306 307 307 310 310 309 310 310 311 310 309 309 309 309 309 308 308 307 303 307 309 310 310 309 307 311 312 312 311 310 309 310 310
331 331 332 332 333 332 331 332 334 333 332 332 330 329 329 329 331 330 330 327 325 323 320 321 319 320 320 322 321 320 317 314 311 312 313 313 315 316 317 319 318 312 307 307 309 309 310 309 309 309 309 309 308 308 308 308 307 306 306 305 304 305 305 305 304 304 306 311 312 312 310 309 309 310
329 329 330 331 333 333 331 330 333 332 331 330 329 328 327 328 330 330 328 325 324 323 320 320 321 321 321 322 320 320 316 314 312 312 312 312 313 315 315 317 317 310 307 308 308 308 308 308 308 308 308 307 307 306 307 307 306 306 306 305 304 304 303 303 303 303 303 304 307 312 312 309 309 309
331 332 330 331 331 334 332 332 332 331 330 329 329 327 327 328 329 327 328 325 324 322 320 320 318 320 319 318 319 320 319 315 311 311 312 313 314 314 315 315 313 314 316 316 315 307 307 307 306 307 307 307 306 306 306 306 306 305 305 304 304 304 303 303 302 302 302 302 302 304 308 310 310 309
332 331 330 330 333 333 333 332 333 332 333 330 334 327 331 329 329 328 326 323 322 322 321 320 319 318 319 319 315 317 319 316 313 312 312 312 313 316 315 315 314 314 313 310 307 309 309 309 311 307 306 306 306 306 305 304 305 304 303 303 302 303 303 302 302 302 302 301 301 301 301 305 310 311
330 330 332 333 331 331 333 335 333 334 330 328 326 331 330 330 329 327 326 324 321 321 320 318 317 318 316 317 317 315 316 314 313 312 312 311 312 314 317 318 316 316 317 316 313 309 308 307 307 306 306 305 305 304 304 305 306 305 303 302 301 301 302 302 302 302 302 302 301 300 300 300 301 309
329 329 333 332 334 332 323 316 320 324 323 329 329 326 327 327 328 326 326 324 322 322 321 319 320 317 316 317 317 314 314 314 312 315 315 314 314 314 315 316 319 318 317 317 317 315 315 314 314 312 312 312 307 307 306 307 305 304 302 302 301 301 301 301 302 302 302 302 301 301 300 299 299 300
329 333 332 327 318 314 312 308 305 304 306 313 328 328 327 326 328 327 325 323 323 322 320 319 318 317 316 317 318 317 318 319 320 318 317 315 316 317 317 318 319 319 319 318 318 318 318 317 317 317 315 317 314 315 312 311 308 303 301 300 301 301 301 301 301 301 301 301 301 301 300 299 299 298
329 331 329 326 320 317 314 309 298 299 298 298 298 299 302 314 334 326 329 324 328 322 321 320 318 317 317 318 319 319 319 320 319 318 319 317 317 315 313 311 317 323 321 318 317 317 324 321 318 320 322 317 314 311 307 302 302 301 300 299 299 300 300 300 300 300 300 300 300 300 300 299 299 298
330 331 331 331 332 331 330 323 317 306 298 297 297 297 298 298 298 302 324 328 324 324 321 323 323 321 321 323 320 319 321 321 321 322 321 319 317 315 314 314 315 322 323 320 319 319 323 325 322 321 319 312 310 307 303 300 300 300 300 299 299 299 299 298 299 299 299 299 299 299 298 299 299 297
332 330 329 331 332 327 325 328 327 322 315 301 300 302 304 304 302 300 299 304 327 329 327 322 322 322 323 320 317 324 322 324 322 321 319 320 320 319 318 318 318 320 326 322 319 318 322 323 320 322 319 316 312 308 302 301 300 300 300 299 299 298 298 298 298 298 298 298 298 298 298 297 297 296
330 329 331 328 327 327 328 329 326 324 323 323 325 326 326 325 317 307 304 306 309 320 328 326 323 326 326 323 325 325 327 323 321 321 320 321 320 321 319 320 322 323 323 321 320 318 322 322 322 318 320 317 312 309 303 300 300 299 299 299 298 298 298 298 298 298 298 297 298 297 297 297 296 296
331 329 329 330 328 328 327 328 325 325 325 326 327 325 321 318 314 311 310 312 322 329 328 326 323 320 322 325 323 324 327 327 327 327 324 323 324 323 324 321 322 320 321 321 319 314 319 323 321 320 319 315 310 307 302 301 300 299 299 299 298 298 297 298 297 297 297 297 297 297 296 296 295 295
329 331 329 327 326 326 327 308 304 317 328 327 325 321 319 317 313 307 298 295 299 310 315 315 313 311 307 303 311 310 317 323 326 325 325 324 324 322 321 317 318 317 318 318 315 314 314 320 314 313 315 315 310 311 309 300 301 300 299 299 298 298 297 297 297 297 297 297 297 297 296 296 294 293
320 317 326 327 326 327 321 298 294 294 313 326 323 322 321 319 316 313 310 299 295 295 295 295 295 296 297 298 298 298 298 306 317 323 321 319 321 319 314 314 316 314 314 314 314 312 308 313 312 311 312 313 311 311 311 309 299 299 300 299 298 298 297 297 297 297 297 297 296 296 295 295 294 294
317 311 302 320 326 321 314 294 294 295 322 324 324 323 320 319 316 314 314 313 307 296 296 295 296 297 298 300 301 299 299 301 309 320 315 316 316 314 313 313 313 313 312 310 314 310 309 311 311 309 310 311 311 311 310 309 303 299 299 298 298 297 298 298 297 297 297 296 297 296 295 294 295 297
317 312 305 298 300 305 299 293 295 297 314 325 322 322 321 318 317 317 317 315 315 315 314 313 314 311 310 316 316 313 301 303 309 316 315 315 312 309 308 309 310 306 306 308 314 311 309 308 309 308 305 304 311 311 309 309 309 308 308 307 304 298 298 298 298 297 296 297 296 296 295 294 295 300
312 310 307 301 292 293 293 293 294 295 300 321 322 322 320 318 315 318 319 320 319 319 315 315 316 315 316 315 315 314 313 313 313 311 312 312 311 309 308 309 306 304 303 306 309 309 309 308 306 308 305 301 298 306 309 308 308 307 307 306 306 300 296 295 296 295 296 296 295 295 295 294 294 299
306 305 303 301 294 292 293 293 293 295 296 300 312 312 312 311 312 312 317 317 308 314 313 313 313 314 312 311 311 310 309 308 309 309 309 309 309 308 307 306 306 303 304 305 302 310 307 306 305 305 305 305 304 304 306 306 306 305 306 305 304 304 304 304 304 302 295 294 294 293 293 295 294 296
301 301 300 299 294 291 292 293 294 294 295 296 306 302 295 295 297 315 316 315 314 312 311 310 309 309 309 308 307 307 307 307 307 308 307 307 307 307 308 306 305 303 302 308 301 307 305 305 304 302 303 302 303 302 301 302 303 304 306 305 304 304 304 303 303 303 304 303 300 297 298 293 295 294
300 300 300 298 293 291 291 292 292 294 295 297 298 293 294 295 297 303 310 310 310 309 308 307 307 306 306 306 305 305 305 306 308 307 307 308 307 307 306 307 308 307 307 308 307 307 306 304 305 302 300 302 300 300 300 300 300 304 304 303 304 304 304 303 302 302 302 302 304 295 294 292 293 294
297 297 297 295 292 292 293 293 292 292 293 295 293 293 293 295 300 308 307 307 308 304 304 304 305 306 306 306 306 305 306 306 307 307 308 308 307 307 307 306 305 306 307 306 306 306 306 303 304 304 303 301 299 298 298 300 301 301 300 302 302 303 303 302 302 302 302 303 303 304 303 302 300 298
295 292 292 292 293 293 294 294 295 295 294 293 293 294 296 301 305 306 304 304 305 303 303 304 306 306 306 306 305 306 306 306 308 308 307 307 306 305 306 306 306 306 306 307 305 304 304 304 303 304 304 303 300 301 300 299 299 299 299 299 299 300 301 302 302 300 300 300 300 301 301 302 302 303
292 292 292 293 294 294 296 299 299 300 300 294 295 295 298 305 305 305 304 304 303 303 303 302 302 303 305 305 306 307 308 306 305 305 304 304 304 305 304 303 303 304 305 304 304 304 305 303 304 303 302 302 301 301 300 299 298 300 299 298 298 299 299 300 300 300 299 298 299 300 302 302 302 301
298 297 297 296 294 294 294 295 295 296 297 300 302 302 302 301 303 303 304 303 303 302 302 302 303 304 304 304 304 306 306 304 305 305 303 303 302 304 303 302 301 301 303 304 304 304 304 304 304 303 301 300 302 301 301 301 298 298 299 299 298 294 297 299 299 298 299 298 299 299 299 300 302 301
301 301 296 297 300 301 301 301 301 301 301 299 298 301 301 301 300 299 298 299 303 303 303 303 303 303 304 303 303 303 303 302 302 304 303 302 301 301 302 300 299 300 300 302 303 303 300 303 303 303 302 301 299 300 301 300 298 297 297 298 297 298 299 297 297 298 299 298 297 297 297 298 297 299
299 298 298 297 297 298 294 295 298 299 299 297 300 300 302 301 303 303 303 302 302 302 302 302 302 302 304 303 303 302 301 301 301 303 302 302 302 301 302 300 299 299 299 299 300 302 303 303 303 303 303 302 301 300 298 296 297 298 296 297 297 297 297 298 297 297 298 297 296 296 295 297 298 298
295 294 293 294 294 295 295 295 293 294 296 295 296 298 295 301 301 301 301 301 301 301 298 302 299 298 300 300 301 300 300 300 300 300 297 301 301 300 299 298 298 298 298 298 299 300 301 303 303 303 303 302 302 300 299 297 295 296 297 297 296 296 297 297 297 298 298 296 295 294 294 295 296 298
294 293 293 293 294 295 296 293 294 294 294 294 295 297 297 298 297 296 297 298 297 297 294 298 296 298 299 298 300 298 298 299 299 299 300 300 301 299 298 299 298 298 298 298 298 300 301 302 302 301 300 299 297 297 297 299 296 295 296 295 295 294 294 295 295 296 296 296 296 293 293 294 294 296
293 293 293 292 293 294 293 293 292 295 296 295 296 293 295 295 295 296 295 297 299 297 296 296 296 297 297 297 296 297 297 296 298 299 297 298 297 297 299 298 298 298 298 298 297 299 300 299 300 298 295 294 292 289 291 295 297 297 294 292 294 294 294 294 294 295 295 295 295 294 290 289 292 295
294 295 296 296 296 296 294 295 295 296 296 296 296 296 293 294 296 297 296 294 297 295 295 293 295 296 294 295 295 294 295 296 294 296 294 296 297 297 295 294 296 297 297 297 298 298 299 297 298 297 294 292 290 289 290 293 293 297 297 293 291 294 293 293 293 293 294 295 294 294 292 290 291 294
294 295 295 295 295 295 296 295 295 293 293 296 295 294 296 296 297 298 299 298 295 295 294 294 295 295 295 294 295 295 296 297 296 296 295 294 293 295 295 295 294 298 297 296 297 297 297 297 296 295 295 290 290 290 289 292 291 293 296 295 291 290 293 291 290 291 292 295 294 294 294 291 292 294
296 296 295 295 295 295 294 294 294 294 296 295 295 295 293 296 297 297 295 295 297 296 296 296 295 295 295 295 295 295 295 295 295 295 294 294 294 295 294 293 294 296 296 295 297 297 297 295 294 294 294 292 289 289 289 290 290 291 291 293 294 291 290 290 289 291 291 290 292 294 294 295 294 292
296 296 296 297 296 296 296 296 296 296 295 295 295 296 295 292 294 294 295 294 294 292 293 294 294 294 295 296 295 296 295 294 294 295 294 294 293 294 294 292 293 292 293 292 292 295 295 293 292 292 293 293 291 291 293 293 294 294 293 292 291 292 291 290 289 289 289 291 292 290 290 291 289 291
296 296 297 297 297 297 296 296 297 296 296 296 296 294 296 296 294 293 293 293 293 294 295 295 294 293 295 294 294 295 294 294 294 294 292 292 291 291 290 290 292 293 292 290 293 293 294 294 294 288 293 295 294 297 293 291 289 291 291 291 291 291 291 291 293 291 288 291 291 289 288 288 287 288
298 297 297 297 297 297 297 297 297 295 296 296 295 295 295 293 293 291 293 292 293 292 294 294 294 294 294 295 295 294 294 293 293 292 292 292 291 290 290 291 292 291 291 290 291 291 295 297 296 296 296 293 291 290 289 288 288 289 290 291 292 291 290 291 290 290 295 291 290 288 288 288 288 287
296 297 296 297 296 296 297 296 296 296 294 296 294 293 294 293 293 293 294 293 294 294 294 294 294 294 294 295 295 294 293 292 292 292 291 292 292 291 291 290 290 291 291 291 292 291 292 295 294 291 292 291 291 291 288 287 289 289 289 290 290 291 292 291 290 290 289 288 289 290 291 289 287 284
296 297 296 296 296 296 296 296 296 296 296 292 294 293 292 293 293 293 293 294 294 293 294 294 294 294 294 294 294 293 293 293 292 291 291 291 290 290 290 290 289 289 291 291 291 292 292 292 290 292 291 289 290 289 288 288 289 289 289 289 289 289 290 291 291 290 289 289 287 288 289 289 290 288
296 296 297 296 295 293 295 295 295 295 294 293 293 293 293 293 293 293 292 292 293 293 293 293 293 293 293 294 293 292 292 291 292 292 292 292 292 291 290 291 291 290 290 289 290 290 291 291 291 292 291 290 291 290 289 288 288 289 289 288 287 288 290 289 289 289 289 290 290 288 288 288 288 288
Wind_Speed
6 4 8 5 4 6 6 5 5 4 4 6 5 7 6 7 8 9 8 7 9 9 8 8 9 9 9 8 8 7 7 11 11 10 8 9 8 6 8 7 7 7 8 8 9 9 10 10 11 11 11 10 9 8 8 8 7 7 6 6 7 8 8 8 7 6 7 8 7 6 6 6 5 5
4 3 1 5 6 7 5 4 3 4 7 5 5 5 7 7 7 7 8 7 6 8 8 7 9 9 9 7 7 8 9 12 12 5 9 8 8 10 8 7 7 7 7 8 9 9 9 9 10 11 9 9 8 8 8 8 7 7 8 8 8 8 8 8 8 8 8 8 8 7 7 6 5 4
5 6 7 9 10 5 3 4 3 6 5 6 5 3 4 4 3 5 4 6 5 5 7 7 8 8 10 8 8 8 10 10 9 5 8 9 13 11 7 7 7 7 7 7 7 7 8 8 9 9 8 8 8 7 8 8 7 9 8 8 9 8 9 8 9 9 9 8 8 7 7 6 5 4
6 9 12 12 8 5 5 5 6 7 7 5 5 5 4 4 5 6 6 7 7 6 7 6 8 9 9 10 8 8 8 8 7 4 8 12 13 8 6 6 8 7 7 7 7 8 8 7 8 8 8 8 8 9 9 8 9 8 8 9 9 9 9 9 9 9 8 8 8 8 8 7 6 5
7 7 10 11 10 8 7 6 6 6 8 7 4 6 5 6 8 8 5 6 7 6 7 7 8 8 9 9 9 9 9 8 4 4 10 9 7 7 7 7 8 8 7 7 7 7 8 9 9 8 8 8 8 8 8 8 8 7 8 9 9 9 9 9 9 8 8 9 9 8 8 8 7 6
7 9 11 10 10 9 8 9 9 8 5 7 7 6 7 4 5 9 7 8 6 8 7 7 7 9 9 8 8 9 9 8 7 7 7 7 7 7 7 8 6 10 8 7 7 7 8 8 8 8 7 7 8 8 8 8 9 8 9 10 10 9 9 9 9 8 8 9 9 8 8 7 8 8
10 11 8 10 9 7 8 7 7 5 7 6 8 8 6 6 6 9 7 7 7 9 8 8 9 8 8 6 9 10 8 9 8 8 8 8 7 6 8 8 7 12 10 10 8 8 8 7 7 7 8 7 8 8 8 9 9 9 9 10 10 10 10 9 9 9 8 9 9 9 9 7 9 9
6 8 9 8 9 8 9 8 6 5 3 6 5 6 6 8 6 6 5 7 8 9 10 9 8 8 7 7 9 9 8 9 8 8 8 8 8 7 7 9 9 11 13 12 10 9 9 8 8 8 8 8 8 8 8 9 9 9 9 9 10 10 10 9 9 9 9 9 10 10 10 9 9 10
9 11 10 10 9 8 8 9 6 6 8 7 7 5 6 7 6 4 8 8 9 9 9 7 8 9 7 7 8 8 8 8 8 8 9 8 8 7 6 4 9 14 14 12 10 9 9 9 9 9 8 8 8 9 9 9 9 9 9 9 9 9 9 9 9 9 9 9 8 10 11 9 10 10
8 8 9 8 9 9 9 5 6 7 9 7 8 9 9 8 8 8 6 6 8 8 9 8 9 7 8 5 5 7 8 8 7 7 8 7 7 7 6 6 8 7 7 6 7 6 7 10 11 11 10 10 11 10 11 11 10 9 9 9 9 9 9 9 9 9 9 9 9 9 9 8 10 11
5 4 6 10 10 9 7 8 7 6 4 4 5 5 4 5 6 6 7 7 8 9 8 7 7 7 6 6 6 7 7 7 7 7 6 7 7 6 6 6 8 8 8 10 12 11 10 12 12 12 14 13 13 12 12 10 10 9 9 8 8 9 9 9 10 10 9 10 9 9 10 9 10 12
2 4 6 3 4 4 6 5 4 4 8 3 2 4 3 2 5 6 6 7 7 7 8 7 7 6 7 6 5 7 6 6 7 7 6 7 6 6 6 6 6 7 8 8 8 10 10 9 13 13 13 14 13 12 9 10 8 8 8 7 8 9 9 10 10 10 10 10 10 10 10 11 10 11
4 8 4 7 6 4 9 12 9 8 8 7 5 4 2 3 5 3 4 7 8 7 7 7 7 7 7 6 6 7 6 6 6 5 5 5 7 7 7 7 6 6 7 7 8 9 10 9 8 9 8 9 13 11 10 6 10 9 8 8 9 9 10 10 10 10 10 11 11 11 11 11 11 10
8 6 7 7 12 11 12 12 11 12 12 8 5 6 6 8 5 4 5 7 6 7 7 7 7 7 7 7 6 6 6 5 4 4 4 5 4 5 5 5 6 6 6 4 6 6 9 8 6 9 10 8 8 4 6 5 9 8 6 4 6 8 9 9 10 10 11 11 11 11 11 11 11 10
9 9 9 9 11 12 12 10 13 13 13 11 12 13 11 8 4 3 6 5 7 4 7 6 8 7 6 5 6 5 5 5 5 4 4 5 4 4 5 5 3 2 3 4 4 6 2 3 6 6 12 10 9 10 7 13 13 12 10 10 9 8 6 7 8 9 10 10 10 10 10 10 10 10
9 7 8 8 7 8 10 10 10 10 11 11 12 13 13 13 13 9 5 1 1 4 5 3 4 1 5 0 2 4 5 5 5 5 5 6 6 6 6 6 3 2 3 2 2 4 4 4 6 7 6 8 8 8 10 13 13 14 13 12 10 10 9 8 7 7 8 9 9 9 9 9 9 9
6 7 7 6 7 8 11 10 9 9 8 10 13 14 14 14 14 14 13 8 1 4 4 6 4 2 6 6 4 7 2 4 4 5 5 3 4 3 1 5 3 3 2 3 2 2 2 3 2 3 6 8 8 7 11 15 15 14 14 13 11 11 10 10 9 8 8 8 8 8 8 8 8 8
9 7 5 8 7 7 8 8 10 9 9 8 8 8 7 8 10 12 13 13 12 9 5 7 7 8 9 6 4 3 4 1 3 4 4 7 5 3 8 6 2 2 1 1 3 3 2 0 2 6 4 8 7 8 11 15 13 14 14 13 12 12 11 11 10 10 9 8 7 7 7 6 7 7
5 8 5 5 8 9 9 7 9 10 9 9 8 10 10 10 9 9 10 9 7 8 8 9 9 8 8 7 9 8 4 2 4 4 4 5 2 7 8 8 5 4 3 4 1 2 1 2 3 5 9 8 9 7 9 13 13 15 15 13 11 12 11 10 10 10 10 9 8 6 5 4 5 6
6 2 6 6 9 9 9 9 5 6 9 9 10 11 11 10 10 10 7 9 13 12 10 10 10 8 8 9 9 8 8 7 5 1 3 2 2 2 2 1 3 2 5 3 4 3 3 7 4 3 3 9 9 7 7 10 15 16 15 11 11 11 11 10 10 10 11 11 9 6 3 0 4 6
9 9 3 6 7 9 8 9 11 12 6 8 10 10 10 9 10 9 8 12 15 16 16 15 14 13 15 15 15 15 16 12 8 4 3 4 3 3 5 5 4 2 4 4 5 3 4 1 1 1 1 2 4 8 8 8 13 16 13 11 12 11 11 12 9 11 11 11 10 7 4 4 5 7
10 14 21 12 9 10 9 13 14 12 7 7 7 9 10 10 10 8 7 7 8 11 12 13 13 13 14 14 14 15 15 15 11 7 5 6 4 4 3 7 4 4 6 5 6 4 2 3 1 2 0 3 4 3 6 8 9 13 9 11 12 11 12 10 8 9 9 9 8 6 4 5 6 5
9 11 14 19 14 11 13 18 16 14 11 2 6 7 8 9 9 8 7 6 7 6 6 6 6 7 8 8 8 9 13 14 11 8 7 7 7 4 4 4 7 6 5 5 7 4 2 2 1 1 2 3 5 3 6 4 4 5 3 6 8 11 11 8 6 7 9 8 5 4 3 4 5 3
10 10 10 13 16 19 19 19 19 17 14 3 3 5 7 8 9 7 6 4 1 5 5 6 6 6 6 6 6 6 7 8 10 9 8 9 8 7 5 2 2 5 6 5 8 4 2 1 2 5 4 3 2 1 3 6 5 5 4 5 5 8 11 11 7 8 7 8 8 4 1 3 6 5
9 9 9 8 13 19 20 19 20 20 19 16 11 11 9 7 5 5 6 6 9 9 6 4 3 4 4 4 4 5 7 7 7 7 8 7 8 7 8 7 4 8 6 4 5 5 4 3 3 3 3 4 2 6 6 6 5 3 6 5 5 6 6 5 4 4 7 5 6 6 4 4 4 3
9 10 9 8 12 19 19 19 19 20 19 19 11 11 14 17 16 8 7 4 4 5 4 4 3 3 4 4 5 5 5 5 6 6 6 6 7 7 7 8 7 7 5 4 6 5 4 3 6 3 4 5 4 4 1 8 5 5 4 5 6 5 5 6 6 6 2 2 4 4 5 7 5 4
7 7 8 8 17 20 20 20 20 19 18 15 11 17 17 16 15 11 6 5 4 3 4 4 3 3 3 3 4 5 4 4 4 6 6 6 7 7 8 9 8 7 5 4 4 5 4 3 5 3 4 5 5 3 6 0 4 6 4 5 4 4 5 4 5 5 5 4 3 7 7 7 6 5
7 7 8 10 18 18 19 19 19 18 16 12 15 14 15 13 8 5 4 5 4 3 3 3 2 3 3 4 5 4 5 5 5 5 5 7 7 7 7 8 9 8 7 6 5 4 3 5 3 4 3 4 5 4 6 4 3 6 5 5 5 5 4 5 5 5 6 6 4 1 3 1 3 3
8 12 16 16 17 17 17 18 16 15 15 17 15 16 14 8 4 5 5 4 2 3 3 3 3 3 4 5 5 5 4 4 3 3 4 6 6 6 6 7 7 6 5 4 2 3 3 5 5 5 3 2 3 3 3 4 4 4 6 5 5 6 5 5 5 5 6 7 6 5 4 5 3 2
16 16 15 16 16 14 13 10 9 9 8 9 12 13 11 7 8 7 4 3 3 2 3 3 3 3 3 4 3 3 3 4 3 4 5 4 5 5 6 6 6 6 5 6 8 8 7 7 5 5 4 1 3 2 3 4 3 4 4 5 5 5 3 4 4 4 5 6 7 7 5 3 2 3
10 12 11 9 11 10 13 12 11 9 8 7 7 7 8 8 6 5 6 5 4 4 3 3 3 3 4 3 3 1 1 3 3 3 1 1 2 1 2 4 7 6 6 5 4 5 5 4 2 3 3 4 3 2 3 2 3 4 4 4 4 4 4 4 5 5 5 5 5 5 6 3 1 1
8 8 8 10 7 8 8 8 7 7 7 7 6 6 5 4 3 3 3 4 3 3 2 2 2 3 3 3 3 3 3 3 2 1 1 2 4 3 3 2 3 6 7 4 4 5 2 1 0 3 1 1 2 2 3 1 3 3 3 2 2 3 3 4 5 5 5 5 5 5 5 4 4 2
7 7 8 8 8 7 6 5 6 6 6 5 6 7 6 4 2 2 1 2 2 1 2 2 2 2 2 3 3 3 4 3 2 2 2 1 2 2 3 1 2 3 3 4 4 3 5 4 3 0 2 1 1 2 3 1 3 3 2 2 3 4 4 5 6 6 6 6 5 5 5 5 5 4
6 6 5 5 4 5 4 4 3 4 3 3 3 3 4 5 5 4 4 3 4 4 3 3 2 2 2 2 2 3 3 2 2 3 4 1 3 1 1 3 2 2 0 2 1 1 3 6 5 2 2 2 2 4 5 3 5 6 6 5 6 5 5 7 7 7 7 7 7 7 6 6 6 5
4 3 4 3 4 4 4 3 3 3 2 2 2 2 3 4 4 4 4 4 2 3 2 3 2 1 1 2 2 3 2 3 3 2 1 1 2 2 1 3 3 3 2 1 1 0 4 6 7 5 6 7 7 6 8 9 3 5 4 5 6 6 8 8 8 8 8 7 7 6 6 6 7 7
4 4 4 4 3 3 3 2 2 3 3 3 3 2 2 3 3 3 3 4 3 1 2 1 1 1 1 1 1 1 1 0 2 2 1 1 1 2 1 3 3 3 1 1 1 2 2 3 4 8 7 5 3 3 2 7 9 5 5 4 6 6 6 7 7 8 7 6 6 6 5 4 6 7
4 4 5 4 4 4 3 4 4 4 3 3 1 1 1 1 1 3 1 1 4 3 3 3 2 2 1 1 1 1 0 0 1 2 1 1 2 2 3 3 2 1 3 2 2 1 2 1 1 3 4 2 3 2 6 1 8 9 5 4 3 5 6 6 6 6 7 7 7 7 6 4 5 6
4 5 5 5 5 5 4 3 1 0 1 2 2 1 2 1 1 1 4 3 3 0 1 1 0 1 1 2 2 2 1 0 1 1 1 3 3 2 1 1 1 3 3 4 2 2 2 2 4 5 5 2 2 3 2 3 5 3 6 5 2 3 5 5 4 4 5 6 6 7 6 5 5 6
5 5 5 5 5 4 3 2 2 3 5 5 3 2 2 3 3 2 3 3 1 1 1 2 3 1 0 1 1 2 3 2 2 2 2 1 1 1 1 1 2 5 5 3 2 3 3 5 5 5 4 3 2 3 2 3 2 4 5 9 5 3 4 3 4 5 6 4 6 6 6 5 7 6
5 5 5 4 4 4 3 4 4 4 4 3 4 4 2 2 2 3 2 2 2 3 1 2 3 1 2 1 1 3 3 1 1 2 2 2 2 2 1 1 2 1 1 1 3 3 5 5 5 4 4 3 2 1 3 3 3 6 4 3 4 6 4 3 3 3 3 6 6 4 5 5 5 7
4 4 4 4 4 3 3 3 3 3 3 3 3 4 5 4 5 4 3 3 3 2 0 1 1 2 2 1 3 2 2 2 2 2 2 2 2 2 3 5 2 1 1 1 2 2 4 4 2 2 4 2 3 6 6 5 1 4 4 4 4 6 8 2 3 4 2 4 4 4 5 6 7 5
5 4 4 4 4 4 3 3 3 2 3 2 1 1 3 2 2 4 2 1 3 4 1 0 1 1 1 0 0 1 2 2 2 3 2 2 3 2 1 2 1 2 1 1 1 2 3 1 5 7 6 4 2 3 2 2 2 2 3 1 4 5 5 6 6 7 4 3 3 4 3 5 5 5
4 4 3 3 3 4 4 4 4 4 3 4 3 2 1 1 0 1 1 0 1 1 0 1 2 2 2 2 1 1 1 1 1 2 2 1 2 1 2 2 2 1 0 0 1 1 0 0 3 1 0 1 1 2 2 2 2 1 2 3 4 4 2 10 11 10 1 3 2 1 2 3 5 6
4 3 3 3 3 3 3 4 4 4 4 2 2 2 2 2 1 1 1 0 0 0 1 1 1 1 0 1 3 2 1 2 2 1 1 2 2 3 2 2 0 1 2 2 1 0 1 0 2 1 1 2 2 2 2 1 2 2 2 3 3 3 4 1 3 4 2 7 7 5 6 7 5 5
4 4 3 3 2 1 2 2 3 3 2 2 2 2 1 1 1 1 2 1 1 1 1 1 1 0 0 0 0 1 2 2 1 1 0 1 1 2 1 0 0 0 1 2 2 0 1 1 0 0 1 1 0 0 0 1 2 2 1 2 3 4 4 3 5 2 3 6 7 10 10 10 11 10
Wind_Direction
201 168 213 216 223 222 222 216 205 202 229 226 187 194 181 188 170 168 170 177 156 169 167 163 157 161 163 144 136 149 138 141 171 168 148 146 146 118 115 116 118 121 126 127 131 132 129 130 131 132 133 135 138 133 136 138 137 134 129 117 112 111 106 102 100 117 128 121 116 116 123 127 124 125
177 176 196 259 234 220 219 229 244 217 197 206 219 189 187 197 179 172 170 151 156 167 169 163 158 164 165 133 143 161 140 164 204 180 140 154 133 126 126 131 127 131 138 136 139 144 145 143 145 144 143 139 136 148 148 150 154 159 159 146 138 134 133 133 137 149 144 138 144 147 153 151 150 148
177 146 214 225 226 201 201 221 192 239 190 207 204 166 140 174 158 126 141 139 202 190 170 154 162 158 147 154 177 153 137 161 207 208 151 135 122 135 124 133 133 140 143 142 146 152 153 154 152 154 154 148 150 156 167 164 173 180 168 152 154 155 150 155 165 172 169 169 167 172 168 165 161 157
189 193 201 208 201 183 192 200 202 215 203 191 178 185 161 172 149 151 173 172 155 223 144 150 164 173 159 156 167 140 139 149 237 173 111 119 136 154 144 136 140 140 150 153 163 160 154 161 166 166 169 166 167 173 177 180 182 192 160 164 168 169 168 172 179 191 188 187 187 187 190 186 180 172
206 211 205 210 199 181 188 194 210 211 198 181 186 171 176 194 174 154 173 150 158 153 144 161 163 163 144 164 159 145 136 156 185 195 125 150 160 166 157 154 149 152 156 166 170 164 164 171 177 175 176 178 180 179 185 185 192 192 170 176 184 182 183 185 188 202 202 194 197 197 203 201 194 185
201 222 213 206 196 190 194 191 195 190 199 190 170 191 186 177 197 124 167 154 177 146 150 171 152 147 181 157 168 139 144 160 175 169 146 156 184 172 156 158 157 161 161 171 174 168 174 177 188 176 183 188 188 185 192 193 197 199 185 188 193 197 194 198 196 204 213 203 200 204 205 211 200 198
200 203 207 215 188 176 191 198 205 160 199 205 185 191 168 183 203 145 163 155 157 156 158 163 165 160 187 169 160 146 153 159 175 173 154 167 187 180 164 165 154 163 168 175 172 179 178 183 194 183 190 196 196 199 200 203 205 208 200 199 203 207 210 209 207 208 216 217 205 203 204 207 208 206
214 212 202 208 198 182 184 189 181 146 194 215 198 171 175 191 184 136 154 190 164 163 159 172 161 159 177 193 168 152 151 160 177 176 164 177 188 175 183 169 152 165 171 175 177 180 183 189 196 196 196 201 204 209 211 213 214 216 213 211 213 216 219 218 218 215 215 226 223 212 203 206 213 215
193 214 195 205 196 194 180 185 170 168 192 204 186 181 186 187 159 196 177 171 160 165 161 170 148 149 165 196 170 160 156 163 184 179 166 188 176 175 192 174 132 150 167 170 179 183 190 196 201 206 204 206 210 211 217 218 221 222 222 222 223 227 228 229 229 225 224 223 233 234 223 207 217 226
223 219 182 195 202 192 182 162 178 188 197 205 192 180 174 183 155 198 174 164 162 163 159 176 135 157 164 177 126 165 160 167 178 177 165 187 177 169 191 139 134 149 168 179 181 193 203 205 208 209 209 211 210 213 215 221 224 226 230 232 236 238 239 241 238 235 232 229 230 237 244 217 213 232
234 244 200 195 194 189 172 175 186 186 163 217 80 208 176 155 172 177 165 173 167 167 160 153 148 152 156 147 167 170 167 160 183 167 171 186 177 174 180 186 153 163 172 184 175 186 199 193 201 206 212 210 211 212 215 221 223 230 233 239 243 244 247 247 246 244 240 236 233 234 235 234 228 234
295 263 236 82 54 228 147 132 147 132 92 84 191 349 342 171 186 185 178 162 168 166 162 156 158 161 150 158 181 156 166 176 181 177 175 184 182 173 184 205 201 176 165 180 185 185 193 195 200 202 208 213 211 210 217 218 224 227 238 246 247 251 252 252 252 249 247 242 237 234 233 230 231 232
234 203 200 141 146 83 85 83 83 101 135 158 126 86 86 171 266 119 225 159 177 162 170 161 162 159 163 166 174 152 175 185 186 161 177 181 184 181 181 200 208 206 182 199 201 189 189 196 197 203 209 207 200 207 206 199 201 219 232 237 242 248 248 252 253 253 251 249 244 240 233 231 228 227
200 182 122 96 101 93 83 90 101 91 75 54 92 150 178 177 206 150 215 183 157 186 168 174 162 169 173 168 174 167 173 182 185 167 187 226 193 211 191 192 194 217 243 232 224 229 164 194 204 202 214 182 162 144 140 62 70 64 39 345 304 286 277 269 264 261 259 255 253 248 243 237 233 226
177 148 133 123 115 110 100 87 85 87 92 88 84 77 63 54 76 164 236 188 176 179 177 183 175 182 174 169 170 187 174 196 200 189 196 216 212 214 230 231 204 97 227 233 276 266 350 229 232 51 33 62 74 76 67 73 68 61 54 37 25 6 331 301 287 277 270 266 260 256 250 244 237 230
164 149 136 138 138 145 128 122 103 91 98 105 95 91 85 78 69 58 96 92 284 192 146 99 38 94 123 328 278 164 204 192 191 204 212 206 223 223 226 239 216 85 16 263 295 320 16 12 357 50 85 70 78 86 101 91 80 70 59 50 35 15 359 345 324 302 290 280 272 266 260 251 239 229
155 146 140 146 123 104 122 135 125 121 105 102 108 104 95 77 60 44 35 32 83 305 168 129 171 225 95 101 225 294 211 164 185 210 231 249 239 273 24 17 64 46 20 4 278 226 359 24 51 89 122 128 120 116 93 82 79 76 70 59 50 35 18 0 344 327 309 290 280 273 265 253 239 222
142 146 141 134 125 140 150 135 132 128 127 129 129 123 103 77 52 39 19 10 0 27 33 108 111 64 116 133 106 69 42 212 229 209 197 228 210 175 106 159 123 119 48 194 237 203 137 110 174 139 166 122 99 94 100 99 101 95 82 68 59 48 34 17 5 351 336 320 299 278 263 248 229 209
123 124 156 156 144 149 148 134 135 135 140 135 117 97 79 68 58 39 24 12 7 47 56 64 69 53 40 54 47 25 17 23 40 333 28 325 12 65 153 149 163 121 64 13 314 270 101 209 190 184 162 133 121 114 128 127 116 100 86 78 70 67 54 34 19 11 359 345 329 311 285 248 207 183
16 118 152 190 163 137 106 27 41 133 132 123 114 101 93 86 70 61 51 39 53 55 58 61 64 62 64 61 58 40 25 17 5 313 201 218 260 177 31 86 102 151 71 13 342 304 208 195 254 334 56 132 131 131 120 132 108 97 93 92 86 77 68 48 29 23 17 4 359 352 340 187 153 155
40 18 15 129 93 90 63 14 37 34 80 125 120 110 102 91 84 80 65 50 61 74 78 83 86 78 65 57 47 39 35 21 352 320 252 229 205 186 165 195 186 130 104 46 356 325 281 300 111 282 101 333 134 158 129 125 116 105 106 104 92 86 76 59 42 34 31 18 7 9 35 104 124 127
52 38 26 27 90 69 46 28 25 20 61 128 110 112 108 103 101 97 93 88 69 77 86 88 91 89 80 67 57 45 35 24 12 10 15 5 293 264 246 155 180 146 95 46 353 285 312 50 68 235 188 229 177 192 102 103 114 115 116 102 102 93 75 73 62 55 52 33 23 25 66 107 139 168
61 51 45 32 36 52 47 41 31 34 48 30 117 121 114 104 109 108 117 117 117 115 114 108 104 108 110 81 65 62 52 36 29 31 23 9 0 335 12 45 124 122 73 30 345 327 58 29 106 309 281 282 140 200 124 122 122 114 128 135 116 104 109 111 110 96 81 72 52 57 89 158 226 232
51 47 48 37 32 53 49 47 43 37 44 53 95 123 124 113 101 125 121 69 174 149 84 62 59 60 68 70 65 63 53 49 40 33 28 23 24 15 354 103 35 51 79 41 356 346 338 171 319 34 357 316 305 293 110 99 86 96 67 33 18 124 131 129 105 96 95 98 94 97 115 187 257 308
41 37 34 42 33 56 55 53 50 47 43 45 50 44 53 47 38 95 117 69 58 76 91 97 89 88 84 78 81 73 60 50 46 45 35 31 29 35 26 7 71 85 65 39 343 354 356 9 357 16 289 283 258 268 103 98 104 66 76 73 29 30 11 12 31 94 104 98 126 132 154 214 252 292
40 43 37 31 41 51 57 55 54 53 49 43 48 38 40 35 33 52 73 52 49 69 59 88 101 100 82 77 72 74 71 67 63 58 53 51 45 43 30 29 39 90 81 44 351 2 341 10 42 8 336 321 319 307 161 118 73 50 34 45 58 41 22 359 358 9 30 160 166 177 164 188 237 241
57 46 44 38 50 52 51 52 49 49 47 49 36 33 29 26 31 41 47 56 64 72 78 77 91 85 100 99 83 72 73 68 68 68 64 62 69 65 55 43 46 65 83 90 57 24 358 2 92 19 344 335 303 300 280 34 63 55 38 16 11 33 32 0 349 359 352 352 72 139 152 176 206 244
54 46 43 43 51 52 51 49 47 45 43 42 37 27 20 6 22 46 54 51 53 69 98 105 105 106 93 88 78 77 68 68 58 60 69 76 65 60 62 65 58 45 43 48 45 32 27 356 26 77 324 329 313 346 340 30 9 40 24 15 335 25 12 6 357 2 0 350 360 281 340 28 181 206
59 63 58 50 51 51 51 50 47 40 30 28 27 26 13 2 40 35 57 64 85 86 98 90 82 79 69 72 76 64 84 78 92 96 66 66 80 96 95 84 80 73 48 13 73 79 45 34 18 356 351 347 327 11 359 344 341 36 56 357 345 358 358 10 355 4 3 349 342 340 2 357 0 249
62 59 58 51 46 45 44 47 44 40 25 25 34 29 23 26 21 13 26 47 49 78 94 108 111 98 107 109 102 141 194 192 150 146 138 156 146 149 138 119 102 86 63 27 7 17 47 49 26 345 323 340 348 359 358 332 336 3 27 21 357 322 360 353 351 8 3 357 344 338 345 26 13 337
59 51 49 51 50 49 47 49 48 44 20 21 27 35 35 34 24 24 29 33 41 36 47 58 72 69 74 92 140 179 40 49 39 40 62 156 85 50 107 163 134 110 94 79 56 10 34 60 50 1 358 356 347 2 332 315 350 6 0 4 351 335 348 336 344 350 7 347 340 341 349 355 129 186
58 57 47 44 38 36 36 34 36 33 26 25 22 29 29 26 36 29 33 38 51 53 57 86 92 121 151 170 158 145 134 104 87 153 190 140 158 184 184 277 103 135 121 113 124 128 110 104 7 136 102 88 355 343 301 46 49 16 329 311 315 330 347 345 336 348 358 324 317 352 350 342 340 5
51 51 45 40 37 34 37 30 27 23 23 21 19 17 3 342 347 349 30 60 55 67 170 139 160 165 146 94 87 94 105 112 119 65 101 243 160 188 264 168 15 50 128 132 149 159 178 180 192 202 135 132 40 354 336 337 156 176 251 309 331 339 351 344 348 347 332 313 326 334 351 348 348 343
69 57 58 46 47 39 38 38 30 30 19 19 12 9 353 9 25 12 37 37 42 28 36 55 48 61 84 112 106 99 83 59 22 29 343 74 38 315 107 92 96 69 0 161 127 249 199 168 169 172 133 117 59 19 8 9 3 359 353 349 358 356 358 345 351 333 334 326 331 347 349 346 339 339
63 64 59 47 41 36 43 34 20 9 25 21 17 28 40 37 33 33 41 36 35 39 44 42 42 33 29 78 83 108 126 132 127 122 355 91 223 131 108 147 151 160 148 64 107 142 305 174 180 171 176 168 151 104 20 355 31 8 4 5 13 2 1 355 340 338 332 327 351 350 342 339 341 346
51 57 69 65 55 50 46 32 15 25 29 16 35 41 46 41 33 31 33 356 34 48 40 52 63 47 37 56 64 58 68 209 139 161 183 125 10 353 162 137 145 121 164 130 36 18 2 27 173 179 185 195 153 130 96 13 27 18 10 14 6 12 354 339 337 325 319 348 346 341 343 348 346 344
69 67 63 63 68 67 64 47 35 42 44 40 26 64 94 92 57 55 44 356 45 23 11 22 46 36 47 62 69 70 72 21 113 140 141 118 123 94 59 30 287 212 122 39 36 128 331 44 4 328 306 281 247 209 120 146 29 13 20 26 7 8 346 340 335 331 350 347 338 346 342 344 338 335
58 56 54 54 51 51 48 45 42 310 128 112 93 18 19 51 141 164 226 154 96 111 184 163 121 160 168 185 181 173 163 160 215 205 164 125 123 129 163 202 212 122 126 137 201 40 42 16 14 1 355 343 339 356 66 126 130 47 1 39 36 11 8 357 341 350 343 347 346 348 335 332 340 331
57 57 59 56 50 42 26 3 342 0 22 23 20 13 15 348 12 328 5 5 311 217 234 146 210 183 136 207 172 176 174 178 182 106 105 111 120 110 93 46 5 24 17 359 349 112 65 48 20 9 356 4 2 14 7 326 50 121 34 27 17 38 26 12 355 345 346 346 345 341 330 344 325 303
51 44 41 44 46 41 26 28 26 34 28 10 18 3 15 4 2 1 0 349 353 345 342 24 29 352 234 285 13 36 43 33 82 96 73 71 50 60 63 45 55 66 97 21 354 26 66 52 31 358 346 10 356 310 316 339 293 127 109 74 357 53 37 13 4 360 350 351 337 340 346 350 350 345
31 33 33 25 33 33 34 30 32 30 24 17 24 3 353 23 27 27 14 354 334 299 203 145 206 270 84 164 205 168 160 113 83 92 90 72 65 51 32 347 295 101 92 101 19 35 48 63 89 233 283 294 247 250 243 232 275 113 141 152 263 121 115 89 360 7 335 330 344 344 354 352 354 339
23 37 28 22 23 26 16 13 8 23 355 8 14 20 16 10 15 327 325 22 320 313 324 131 219 205 147 268 48 125 157 159 146 135 142 142 125 119 233 271 83 69 346 83 82 44 41 95 173 201 228 251 309 321 2 39 341 24 360 78 148 212 204 179 234 263 315 357 343 352 355 350 4 350
34 39 44 37 22 13 2 358 353 6 0 1 6 2 3 4 70 255 263 92 241 237 211 180 187 180 184 172 127 73 73 61 61 59 42 37 35 52 64 47 32 21 29 39 95 111 2 160 36 328 7 22 346 346 26 12 311 356 358 19 1 345 242 198 227 228 348 351 348 170 347 2 3 351
41 31 42 34 33 23 11 356 0 7 1 350 348 331 315 329 345 334 324 321 295 263 269 250 210 191 184 136 142 170 82 92 101 82 61 53 43 25 50 91 96 344 340 24 10 97 128 118 69 310 51 36 17 37 39 324 339 27 353 22 340 329 325 28 260 158 143 201 223 255 270 268 250 218
29 27 39 38 37 29 15 358 354 356 0 333 316 325 320 318 323 348 359 332 315 311 323 316 350 21 18 326 1 55 71 44 357 157 119 147 130 145 142 357 18 179 55 23 326 2 44 341 67 288 61 54 308 63 100 37 335 312 338 349 352 348 336 7 335 319 185 190 219 218 236 240 252 266